Hurlburt Field, FL

7:00 PM CDT on September 19, 2017 (GMT -0500)
Hurlburt

Weather History for KHRT - December, 2011

Change the Weather History Date:

Friday, December 23, 2011

  Actual Average Record
Temperature  
Mean Temperature 56 °F -  
Max Temperature 62 °F 58 °F 75 °F (2015)
Min Temperature 48 °F 39 °F 26 °F (2000)
Degree Days  
Heating Degree Days 10    
Growing Degree Days 6 (Base 50)    
Moisture  
Dew Point 53 °F    
Average Humidity 89    
Maximum Humidity 100    
Minimum Humidity 67    
Precipitation  
Precipitation 0.00 in - - ()
Sea Level Pressure  
Sea Level Pressure 30.17 in    
Wind  
Wind Speed 12 mph (North)    
Max Wind Speed 15 mph    
Max Gust Speed 22 mph    
Visibility 10 miles    
Events Rain    
Averages and records for this station are not official NWS values.
T = Trace of Precipitation, MM = Missing Value Source: NWS Daily Summary

Daily Weather History Graph

Daily Weather History Graph

Search for Another Location

Airport or City:

Trip Planner

Search our weather history database for the weather conditions in past years. The results will help you decide how hot, cold, wet, or windy it might be!

Date:

Astronomy

Dec. 23, 2011 Rise Set
Actual Time 6:40 AM CST 4:51 PM CST
Civil Twilight 6:13 AM CST 5:17 PM CST
Nautical Twilight 5:43 AM CST 5:47 PM CST
Astronomical Twilight 5:14 AM CST 6:17 PM CST
Moon 5:28 AM CST (12/23) 4:00 PM CST (12/23)
Length of Visible Light 11h 03m
Length of Day
10h 10m
Waning Crescent, 1% of the Moon is Illuminated
Dec 23
Waning Crescent
Dec 24
New
Jan 1
First Quarter
Jan 9
Full
Jan 16
Last Quarter

Hourly Weather History & Observations

Time (CST) Temp. Dew Point Humidity Pressure Visibility Wind Dir Wind Speed Gust Speed Precip Events Conditions
12:06 AM 62.6 °F 62.6 °F 100% 30.06 in 10.0 mi NNW 10.4 mph 19.6 mph N/A Rain Light Rain
12:16 AM 62.6 °F 60.8 °F 94% 30.08 in 10.0 mi NW 8.1 mph - N/A   Overcast
12:40 AM 60.8 °F 60.8 °F 100% 30.07 in 10.0 mi NNW 11.5 mph - N/A Rain Light Rain
12:48 AM 60.8 °F 59.0 °F 94% 30.07 in 10.0 mi NNW 11.5 mph - N/A Rain Light Rain
12:55 AM 59.7 °F 58.8 °F 97% 30.07 in 10.0 mi NNW 11.5 mph - 0.00 in Rain Light Rain
1:14 AM 59.0 °F 57.2 °F 94% 30.08 in 10.0 mi NNW 11.5 mph - N/A   Overcast
1:49 AM 57.2 °F 55.4 °F 94% 30.09 in 10.0 mi North 11.5 mph - N/A Rain Light Rain
1:55 AM 57.2 °F 56.3 °F 97% 30.09 in 10.0 mi North 10.4 mph - 0.00 in Rain Light Rain
2:06 AM 57.2 °F 55.4 °F 94% 30.08 in 10.0 mi North 15.0 mph - N/A   Overcast
2:40 AM 55.4 °F 53.6 °F 94% 30.09 in 10.0 mi NNW 13.8 mph - N/A   Overcast
2:55 AM 54.7 °F 54.0 °F 97% 30.09 in 10.0 mi NNW 12.7 mph - 0.00 in   Overcast
2:59 AM 55.4 °F 53.6 °F 94% 30.10 in 10.0 mi NNW 12.7 mph - N/A   Overcast
3:55 AM 54.1 °F 53.2 °F 97% 30.10 in 10.0 mi North 12.7 mph - N/A   Overcast
4:55 AM 53.2 °F 52.7 °F 98% 30.12 in 10.0 mi North 10.4 mph - N/A   Overcast
5:17 AM 53.6 °F 51.8 °F 94% 30.12 in 10.0 mi North 9.2 mph - N/A   Overcast
5:47 AM 53.6 °F 51.8 °F 94% 30.14 in 10.0 mi North 13.8 mph - N/A   Overcast
5:55 AM 52.9 °F 51.8 °F 96% 30.14 in 10.0 mi North 12.7 mph - N/A   Overcast
6:55 AM 53.1 °F 51.6 °F 95% 30.18 in 10.0 mi North 9.2 mph - N/A   Overcast
7:39 AM 53.6 °F 51.8 °F 94% 30.19 in 10.0 mi NNE 11.5 mph - N/A   Overcast
7:40 AM 53.6 °F 51.8 °F 94% 30.19 in 10.0 mi NNE 11.5 mph - N/A   Overcast
7:46 AM 53.6 °F 51.8 °F 94% 30.19 in 10.0 mi North 11.5 mph - N/A   Overcast
7:55 AM 53.8 °F 51.3 °F 91% 30.19 in 10.0 mi North 12.7 mph - N/A   Overcast
8:23 AM 53.6 °F 51.8 °F 94% 30.21 in 10.0 mi North 12.7 mph 19.6 mph N/A   Overcast
8:55 AM 54.3 °F 50.9 °F 88% 30.21 in 10.0 mi North 13.8 mph - N/A   Overcast
9:40 AM 55.4 °F 51.8 °F 88% 30.22 in 10.0 mi North 11.5 mph - N/A   Overcast
9:55 AM 55.2 °F 51.3 °F 87% 30.22 in 10.0 mi North 13.8 mph - N/A   Overcast
10:09 AM 57.2 °F 51.8 °F 82% 30.22 in 10.0 mi North 13.8 mph - N/A   Overcast
10:35 AM 57.2 °F 51.8 °F 82% 30.22 in 10.0 mi North 12.7 mph - N/A   Overcast
10:55 AM 58.3 °F 51.4 °F 78% 30.21 in 10.0 mi North 13.8 mph - N/A   Overcast
11:55 AM 60.8 °F 51.8 °F 72% 30.18 in 10.0 mi North 13.8 mph - N/A   Mostly Cloudy
12:55 PM 62.8 °F 51.8 °F 67% 30.16 in 10.0 mi NNW 10.4 mph - N/A   Overcast
1:55 PM 61.7 °F 52.0 °F 70% 30.17 in 10.0 mi North 10.4 mph - N/A   Overcast
2:55 PM 61.0 °F 52.7 °F 74% 30.18 in 10.0 mi North 11.5 mph - N/A   Overcast
3:55 PM 59.5 °F 51.4 °F 75% 30.18 in 10.0 mi North 12.7 mph - N/A   Overcast
4:55 PM 57.4 °F 51.1 °F 79% 30.21 in 10.0 mi North 11.5 mph - N/A   Overcast
5:55 PM 55.2 °F 49.8 °F 82% 30.22 in 10.0 mi North 12.7 mph 18.4 mph N/A   Overcast
6:55 PM 53.1 °F 48.4 °F 84% 30.24 in 10.0 mi North 10.4 mph - N/A   Scattered Clouds
7:55 PM 52.3 °F 47.7 °F 84% 30.25 in 10.0 mi North 12.7 mph 21.9 mph N/A   Mostly Cloudy
8:55 PM 50.9 °F 46.8 °F 86% 30.27 in 10.0 mi North 12.7 mph - N/A   Clear
9:55 PM 49.8 °F 46.2 °F 87% 30.28 in 10.0 mi North 13.8 mph - N/A   Clear
10:55 PM 49.3 °F 45.3 °F 86% 30.29 in 10.0 mi North 11.5 mph - N/A   Clear
11:55 PM 48.4 °F 44.8 °F 87% 30.28 in 10.0 mi North 10.4 mph - N/A   Clear